Weather History for KCLL - August, 2013

Change the Weather History Date:

Thursday, August 1, 2013

  Actual Average Record
Temperature  
Mean Temperature 90 °F 86 °F  
Max Temperature 103 °F 96 °F 106 °F (1998)
Min Temperature 76 °F 75 °F 63 °F (1925)
Degree Days  
Heating Degree Days 0 0  
Month to date heating degree days 0 0  
Since 1 June heating degree days 0 0  
Since 1 July heating degree days 0 0  
Cooling Degree Days 25 20  
Month to date cooling degree days 25 20  
Year to date cooling degree days 1804 1735  
Since 1 June cooling degree days 1240 1147  
Growing Degree Days 40 (Base 50)    
Moisture  
Dew Point 70 °F    
Average Humidity 59    
Maximum Humidity 88    
Minimum Humidity 29    
Precipitation  
Precipitation 0.01 in 0.07 in 2.45 in (1989)
Month to date precipitation 0.01 0.07  
Year to date precipitation 18.96 22.91  
Sea Level Pressure  
Sea Level Pressure 29.96 in    
Wind  
Wind Speed 6 mph (South)    
Max Wind Speed 17 mph    
Max Gust Speed 23 mph    
Visibility 10 miles    
Events Rain , Thunderstorm    
T = Trace of Precipitation, MM = Missing Value Source: NWS Daily Summary

Daily Weather History Graph

Daily Weather History Graph

Search for Another Location

Airport or City:

Trip Planner

Search our weather history database for the weather conditions in past years. The results will help you decide how hot, cold, wet, or windy it might be!

Date:

Astronomy

Aug. 01, 2013 Rise Set
Actual Time 6:43 AM CDT 8:19 PM CDT
Civil Twilight 6:17 AM CDT 8:45 PM CDT
Nautical Twilight 5:46 AM CDT 9:16 PM CDT
Astronomical Twilight 5:13 AM CDT 9:49 PM CDT
Moon 2:22 AM CDT 4:26 PM CDT
Length of Visible Light 14h 28m
Length of Day
13h 35m
Waning Crescent, 23% of the Moon is Illuminated
Aug 1
Waning Crescent
Aug 6
New
Aug 14
First Quarter
Aug 20
Full
Aug 28
Last Quarter

Hourly Weather History & Observations

Time (CDT) Temp. Heat Index Dew Point Humidity Pressure Visibility Wind Dir Wind Speed Gust Speed Precip Events Conditions
12:53 AM 84.0 °F 89.0 °F 71.1 °F 65% 29.99 in 10.0 mi South 9.2 mph - N/A   Clear
1:53 AM 82.0 °F 86.3 °F 71.1 °F 69% 29.98 in 10.0 mi South 6.9 mph - N/A   Clear
2:53 AM 80.1 °F 83.6 °F 71.1 °F 74% 29.97 in 10.0 mi South 5.8 mph - N/A   Clear
3:53 AM 79.0 °F - 72.0 °F 79% 29.98 in 10.0 mi South 3.5 mph - N/A   Clear
4:53 AM 78.1 °F - 72.0 °F 81% 29.99 in 10.0 mi South 5.8 mph - N/A   Clear
5:53 AM 77.0 °F - 72.0 °F 84% 29.99 in 10.0 mi SSW 4.6 mph - N/A   Clear
6:53 AM 77.0 °F - 73.0 °F 88% 30.01 in 10.0 mi South 3.5 mph - N/A   Clear
7:53 AM 78.1 °F - 73.9 °F 87% 30.02 in 10.0 mi SSW 4.6 mph - N/A   Clear
8:53 AM 82.0 °F 87.9 °F 73.9 °F 76% 30.02 in 10.0 mi SW 10.4 mph - N/A   Clear
9:53 AM 86.0 °F 92.2 °F 72.0 °F 63% 30.02 in 10.0 mi SW 10.4 mph - N/A   Clear
10:53 AM 89.1 °F 95.0 °F 71.1 °F 55% 30.02 in 10.0 mi SSW 8.1 mph - N/A   Clear
11:53 AM 93.0 °F 99.0 °F 70.0 °F 47% 30.01 in 10.0 mi Variable 6.9 mph - N/A   Clear
12:53 PM 95.0 °F 100.7 °F 69.1 °F 43% 29.99 in 10.0 mi SW 4.6 mph - N/A   Clear
1:53 PM 98.1 °F 102.4 °F 66.9 °F 36% 29.96 in 10.0 mi Calm Calm - N/A   Clear
2:53 PM 100.9 °F 105.3 °F 66.0 °F 32% 29.94 in 10.0 mi ENE 4.6 mph - N/A   Clear
3:53 PM 102.9 °F 106.8 °F 64.9 °F 29% 29.91 in 10.0 mi Variable 4.6 mph - N/A   Scattered Clouds
4:53 PM 100.9 °F 104.6 °F 64.9 °F 31% 29.90 in 10.0 mi Variable 4.6 mph - N/A   Clear
5:53 PM 99.0 °F 102.3 °F 64.9 °F 33% 29.88 in 10.0 mi Variable 4.6 mph - N/A   Clear
6:53 PM 100.0 °F 103.6 °F 64.9 °F 32% 29.87 in 10.0 mi Variable 3.5 mph - N/A Thunderstorm Clear
7:33 PM 95.0 °F 101.3 °F 69.8 °F 44% 29.91 in 10.0 mi ENE 17.3 mph - N/A   Scattered Clouds
7:53 PM 87.1 °F 96.3 °F 75.0 °F 67% 29.90 in 7.0 mi ENE 10.4 mph - 0.01 in Rain Light Rain
8:53 PM 91.0 °F 97.6 °F 71.1 °F 52% 29.90 in 10.0 mi ESE 4.6 mph - 0.00 in   Clear
9:53 PM 89.1 °F 95.0 °F 71.1 °F 55% 29.91 in 10.0 mi SE 4.6 mph - N/A   Clear
10:53 PM 89.1 °F 93.7 °F 69.1 °F 52% 29.93 in 10.0 mi South 6.9 mph - N/A   Clear
11:53 PM 87.1 °F 92.8 °F 71.1 °F 59% 29.94 in 10.0 mi South 16.1 mph - N/A   Clear